Wakefield, VA

6:47 PM EST on December 15, 2019 (GMT -0500)
Wakefield Municipal

Weather History for KAKQ - October, 2019

Change the Weather History Date:

Friday, October 11, 2019

  Actual Average (WUND) Record (WUND)
Temperature  
Mean Temperature 64 °F -  
Max Temperature 77 °F - - (-1)
Min Temperature 48 °F - - (-1)
Degree Days  
Heating Degree Days 2    
Growing Degree Days 14 (Base 50)    
Moisture  
Dew Point 45 °F    
Average Humidity 63    
Maximum Humidity 93    
Minimum Humidity 25    
Precipitation  
Precipitation 0.00 in - - ()
Sea Level Pressure  
Sea Level Pressure 30.09 in    
Wind  
Wind Speed 2 mph (NNW)    
Max Wind Speed 10 mph    
Max Gust Speed -    
Visibility 10 miles    
Events      
Averages and records for this station are not official NWS values.
T = Trace of Precipitation, MM = Missing Value Source: NWS Daily Summary

Daily Weather History Graph

Daily Weather History Graph

Search for Another Location

Airport or City:

Astronomy

Oct. 11, 2019 Rise Set
Actual Time 7:11 AM EDT 6:37 PM EDT
Civil Twilight 6:45 AM EDT 7:03 PM EDT
Nautical Twilight 6:15 AM EDT 7:33 PM EDT
Astronomical Twilight 5:45 AM EDT 8:03 PM EDT
Moon 6:00 PM EDT (10/11) 4:55 AM EDT (10/11)
Length of Visible Light 12h 17m
Length of Day
11h 25m
Waxing Gibbous, 96% of the Moon is Illuminated
Oct 11
Waxing Gibbous
Oct 13
Full
Oct 21
Last Quarter
Oct 27
New
Nov 4
First Quarter

Hourly Weather History & Observations

Time (EDT) Temp. Dew Point Humidity Pressure Visibility Wind Dir Wind Speed Gust Speed Precip Events Conditions
12:54 AM 55.0 °F 51.1 °F 86% 30.12 in 10.0 mi Calm Calm - N/A   Clear
1:54 AM 53.1 °F 50.0 °F 89% 30.12 in 10.0 mi Calm Calm - N/A   Clear
2:54 AM 53.1 °F 50.0 °F 89% 30.11 in 10.0 mi Calm Calm - N/A   Clear
3:54 AM 54.0 °F 51.1 °F 90% 30.11 in 10.0 mi Calm Calm - N/A   Clear
4:54 AM 53.1 °F 51.1 °F 93% 30.12 in 10.0 mi Calm Calm - N/A   Clear
5:54 AM 54.0 °F 50.0 °F 86% 30.11 in 10.0 mi Calm Calm - N/A   Clear
6:54 AM 52.0 °F 48.9 °F 89% 30.11 in 10.0 mi Calm Calm - N/A   Clear
7:54 AM 53.1 °F 50.0 °F 89% 30.12 in 10.0 mi WNW 3.5 mph - N/A   Clear
8:54 AM 59.0 °F 51.1 °F 75% 30.13 in 10.0 mi NNW 3.5 mph - N/A   Clear
9:54 AM 63.0 °F 48.0 °F 58% 30.14 in 10.0 mi Variable 4.6 mph - N/A   Clear
10:54 AM 66.0 °F 43.0 °F 43% 30.14 in 10.0 mi NNW 9.2 mph - N/A   Clear
11:54 AM 69.1 °F 39.9 °F 35% 30.12 in 10.0 mi Variable 5.8 mph - N/A   Clear
12:54 PM 71.1 °F 37.9 °F 30% 30.10 in 10.0 mi NNW 6.9 mph - N/A   Clear
1:54 PM 73.9 °F 36.0 °F 25% 30.06 in 10.0 mi NNW 10.4 mph - N/A   Clear
2:54 PM 75.0 °F 37.0 °F 25% 30.04 in 10.0 mi North 9.2 mph - N/A   Clear
3:54 PM 75.9 °F 37.9 °F 25% 30.03 in 10.0 mi Variable 5.8 mph - N/A   Clear
4:54 PM 75.0 °F 39.0 °F 27% 30.04 in 10.0 mi North 6.9 mph - N/A   Clear
5:54 PM 73.0 °F 41.0 °F 31% 30.04 in 10.0 mi Calm Calm - N/A   Clear
6:54 PM 61.0 °F 46.0 °F 58% 30.04 in 10.0 mi Calm Calm - N/A   Clear
7:54 PM 55.9 °F 46.0 °F 69% 30.04 in 10.0 mi Calm Calm - N/A   Clear
8:54 PM 54.0 °F 46.0 °F 75% 30.05 in 10.0 mi Calm Calm - N/A   Clear
9:54 PM 52.0 °F 46.0 °F 80% 30.06 in 10.0 mi Calm Calm - N/A   Clear
11:54 PM 48.9 °F 45.0 °F 86% 30.05 in 10.0 mi Calm Calm - N/A   Clear